Location: Newark
(7.0858°N, 171.3717°E)
Time: 15:00:29
(UTC+00:00)

Courier 1B - All Passes

Search period start: 26 November 2020 00:00
Search period end: 06 December 2020 00:00
Orbit: 962 x 1209 km, 28.3° (Epoch: 25 November)

Date Brightness Start Highest point End Pass type
(mag) Time Alt. Az. Time Alt. Az. Time Alt. Az.
26 Nov - 06:56:02 10° SSW 07:01:34 29° SSE 07:07:12 10° E visible
26 Nov - 08:49:00 10° WSW 08:55:33 75° NNW 09:02:26 10° ENE visible
26 Nov - 10:44:38 10° WNW 10:50:08 26° NNW 10:55:54 10° NE night (unlit)
26 Nov - 12:42:24 10° NW 12:45:51 14° N 12:49:23 10° NNE night (unlit)
26 Nov - 14:38:01 10° NNW 14:42:09 15° N 14:46:20 10° NE visible
26 Nov - 16:31:11 10° NW 16:37:51 31° NNE 16:44:36 10° E visible
26 Nov - 18:24:46 10° WNW 18:32:40 84° NNE 18:40:29 10° ESE daylight
26 Nov - 20:20:21 10° W 20:27:04 31° SSW 20:33:36 10° SSE daylight
27 Nov - 06:03:08 10° SSW 06:07:47 20° SSE 06:12:27 10° ESE daylight
27 Nov - 07:55:17 10° WSW 08:01:46 80° SSE 08:08:32 10° ENE visible
27 Nov - 09:50:14 10° W 09:56:05 32° NNW 10:02:14 10° NE visible
27 Nov - 11:47:41 10° NW 11:51:29 15° N 11:55:23 10° NNE night (unlit)
27 Nov - 13:44:18 10° NNW 13:47:42 13° N 13:51:10 10° NNE night (unlit)
27 Nov - 15:37:37 10° NNW 15:43:37 25° NNE 15:49:45 10° ENE visible
27 Nov - 17:30:53 10° NW 17:38:37 64° NNE 17:46:23 10° ESE visible
27 Nov - 19:25:43 10° W 19:33:04 43° SSW 19:40:17 10° SE daylight
27 Nov - 21:25:03 10° SW 21:27:45 12° SSW 21:30:25 10° S daylight
28 Nov - 05:10:41 10° S 05:13:55 14° SSE 05:17:08 10° ESE daylight
28 Nov - 07:01:44 10° SW 07:08:03 56° SSE 07:14:30 10° ENE visible
28 Nov - 08:56:02 10° W 09:02:09 42° NNW 09:08:34 10° NE visible
28 Nov - 10:52:56 10° NW 10:57:12 17° NNW 11:01:37 10° NNE night (unlit)
28 Nov - 12:50:25 10° NNW 12:53:16 12° N 12:56:10 10° NNE night (unlit)
28 Nov - 14:44:07 10° NNW 14:49:20 20° NNE 14:54:41 10° ENE visible
28 Nov - 16:37:09 10° NW 16:44:32 48° NNE 16:52:04 10° E visible
28 Nov - 18:31:22 10° WNW 18:39:03 59° SSW 18:46:43 10° SE daylight
28 Nov - 20:28:43 10° WSW 20:33:36 18° SSW 20:38:26 10° S daylight
29 Nov - 06:08:21 10° SW 06:14:19 39° SSE 06:20:20 10° E daylight
29 Nov - 08:01:58 10° WSW 08:08:18 57° NNW 08:14:53 10° NE visible
29 Nov - 09:58:15 10° WNW 10:03:02 20° NNW 10:07:59 10° NNE visible
29 Nov - 11:56:11 10° NNW 11:58:51 12° N 12:01:33 10° NNE night (unlit)
29 Nov - 13:50:40 10° NNW 13:55:00 16° NNE 13:59:28 10° NE night (unlit)
29 Nov - 15:43:32 10° NW 15:50:26 37° NNE 15:57:31 10° E visible
29 Nov - 17:37:15 10° WNW 17:45:03 79° SSW 17:52:56 10° SE visible
29 Nov - 19:33:24 10° W 19:39:32 25° SSW 19:45:36 10° SSE daylight
30 Nov - 05:15:09 10° SSW 05:20:35 27° SSE 05:25:56 10° E daylight
30 Nov - 07:08:05 10° WSW 07:14:33 79° NNW 07:21:08 10° ENE visible
30 Nov - 09:03:41 10° WNW 09:08:58 25° NNW 09:14:25 10° NNE visible
30 Nov - 11:01:37 10° NNW 11:04:29 13° N 11:07:25 10° NNE night (unlit)
30 Nov - 12:57:12 10° NNW 13:00:38 14° N 13:04:10 10° NE night (unlit)
30 Nov - 14:50:01 10° NW 14:56:16 29° NNE 15:02:46 10° E visible
30 Nov - 16:43:21 10° WNW 16:51:02 79° NNE 16:58:55 10° ESE visible
30 Nov - 18:38:34 10° W 18:45:29 34° SSW 18:52:23 10° SSE daylight
01 Dec - 04:22:12 10° SSW 04:26:45 19° SSE 04:31:13 10° ESE daylight
01 Dec - 06:14:20 10° SW 06:20:50 75° SSE 06:27:18 10° ENE daylight
01 Dec - 08:09:17 10° W 08:15:00 33° NNW 08:20:53 10° NE visible
01 Dec - 10:06:49 10° NW 10:10:12 14° N 10:13:39 10° NNE night (unlit)
01 Dec - 12:03:42 10° NNW 12:06:16 12° N 12:08:53 10° NNE night (unlit)
01 Dec - 13:56:36 10° NNW 14:02:05 22° NNE 14:07:47 10° ENE visible
01 Dec - 15:49:35 10° NW 15:57:00 60° NNE 16:04:42 10° ESE visible
01 Dec - 17:44:06 10° WNW 17:51:27 46° SSW 17:58:54 10° SE visible
01 Dec - 19:42:37 10° SW 19:46:12 14° SSW 19:49:47 10° S daylight
02 Dec - 03:29:42 10° S 03:32:50 13° SSE 03:35:54 10° SE daylight
02 Dec - 05:20:44 10° SW 05:27:06 52° SSE 05:33:21 10° ENE daylight
02 Dec - 07:15:01 10° W 07:21:08 44° NNW 07:27:19 10° NE visible
02 Dec - 09:12:00 10° NW 09:16:00 17° NNW 09:20:05 10° NNE visible
02 Dec - 11:09:57 10° NNW 11:11:53 11° N 11:13:51 10° NNE night (unlit)
02 Dec - 13:03:15 10° NNW 13:07:51 18° NNE 13:12:38 10° ENE night (unlit)
02 Dec - 14:55:59 10° NW 15:02:58 45° NNE 15:10:17 10° E visible
02 Dec - 16:49:55 10° WNW 16:57:26 62° SSW 17:05:12 10° SE visible
02 Dec - 18:46:48 10° WSW 18:52:02 19° SSW 18:57:18 10° SSE daylight
03 Dec - 04:27:18 10° SW 04:33:21 37° SSE 04:39:14 10° E daylight
03 Dec - 06:20:56 10° WSW 06:27:21 60° NNW 06:33:44 10° NE daylight
03 Dec - 08:17:15 10° WNW 08:21:54 20° NNW 08:26:38 10° NNE visible
03 Dec - 10:15:40 10° NNW 10:17:33 11° N 10:19:27 10° NNE night (unlit)
03 Dec - 12:09:58 10° NNW 12:13:35 15° NNE 12:17:19 10° NE night (unlit)
03 Dec - 14:02:30 10° NW 14:08:54 34° NNE 14:15:39 10° E visible
03 Dec - 15:55:57 10° WNW 16:03:27 83° SSW 16:11:18 10° ESE visible
03 Dec - 17:51:43 10° W 17:57:56 26° SSW 18:04:16 10° SSE visible
04 Dec - 03:34:01 10° SSW 03:39:33 26° SSE 03:44:52 10° E daylight
04 Dec - 05:26:59 10° WSW 05:33:36 84° NNW 05:40:05 10° ENE daylight
04 Dec - 07:22:38 10° WNW 07:27:54 26° NNW 07:33:13 10° NNE visible
04 Dec - 09:20:51 10° NNW 09:23:15 12° N 09:25:40 10° NNE visible
04 Dec - 11:16:43 10° NNW 11:19:18 12° N 11:21:55 10° NNE night (unlit)
04 Dec - 13:09:07 10° NNW 13:14:49 26° NNE 13:20:49 10° ENE night (unlit)
04 Dec - 15:02:10 10° NW 15:09:28 74° NNE 15:17:12 10° ESE visible
04 Dec - 16:57:05 10° W 17:03:53 36° SSW 17:10:54 10° SSE visible
05 Dec - 02:40:58 10° SSW 02:45:39 19° SSE 02:50:10 10° ESE daylight
05 Dec - 04:33:10 10° SW 04:39:52 70° SSE 04:46:19 10° ENE daylight
05 Dec - 06:28:09 10° W 06:33:59 34° NNW 06:39:48 10° NE visible
05 Dec - 08:25:52 10° NW 08:29:02 14° NNW 08:32:14 10° NNE visible
05 Dec - 10:23:26 10° N 10:24:58 11° N 10:26:31 10° NNE night (unlit)
05 Dec - 12:15:49 10° NNW 12:20:42 20° NNE 12:25:47 10° ENE night (unlit)
05 Dec - 14:08:33 10° NW 14:15:31 55° NNE 14:22:54 10° ESE visible
05 Dec - 16:02:47 10° WNW 16:09:52 48° SSW 16:17:19 10° SE visible
05 Dec - 18:00:42 10° WSW 18:04:38 14° SSW 18:08:36 10° S visible
